Location: Unspecified
(0.0000°N, 0.0000°E)
Time: 12:43:28
(UTC+00:00)

BEESAT 3 - Visible Passes

Search period start: 24 April 2018 00:00
Search period end: 04 May 2018 00:00
Orbit: 496 x 522 km, 64.9° (Epoch: 23 April)

Date Brightness Start Highest point End Pass type
(mag) Time Alt. Az. Time Alt. Az. Time Alt. Az.
24 Apr ? 05:08:55 10° SSE 05:11:40 18° ESE 05:14:26 10° ENE visible
24 Apr ? 18:37:51 10° W 18:39:55 14° WSW 18:41:59 10° SW visible
25 Apr ? 04:51:01 10° SSE 04:53:42 18° ESE 04:56:22 10° ENE visible
25 Apr ? 18:19:46 10° WNW 18:21:56 15° WSW 18:24:08 10° SSW visible
26 Apr ? 04:33:08 10° SSE 04:35:43 17° ESE 04:38:18 10° ENE visible
27 Apr ? 04:15:15 10° SSE 04:17:44 16° ESE 04:20:14 10° ENE visible
28 Apr ? 03:58:24 13° SE 03:59:46 16° ESE 04:02:09 10° ENE visible
29 Apr ? 03:42:09 15° ESE 03:42:09 15° ESE 03:44:03 10° ENE visible
29 Apr ? 05:17:04 13° WSW 05:18:59 18° WNW 05:21:43 10° NNW visible
30 Apr ? 03:25:47 10° E 03:25:47 10° E 03:25:56 10° ENE visible
30 Apr ? 05:00:41 19° WNW 05:01:00 19° WNW 05:03:48 10° NNW visible
01 May ? 04:44:12 17° NW 04:44:12 17° NW 04:45:53 10° NNW visible
02 May ? 04:27:34 12° NNW 04:27:34 12° NNW 04:27:57 10° NNW visible
